SL-3 R/B

Satellite information

Favourite Embed

Satellite Type and Status

ROCKET BODYIN ORBIT

Key statistics

Satellite SL-3 R/B at a glance.

Uptime

18624

Days in orbit

Revolutions

≈ 14.1

Per day

Orbit

LEO

Low Earth Orbit

Inclination

81.2

Latest

Satellite identification and parameters

Extended collection of information and parameters for SL-3 R/B.

Object identification

Identified? True

Debris? False

Object name: SL-3 R/B

International designator: 1974-099B

Object number (NORAD): 7575

Object ID (CCSDS): 7575

Country: COMMONWEALTH OF INDEPENDENT STATES (CIS)

Current information (Y/N): Y

RCS size: LARGE

Orbital parameters

Period: 102.016 minutes

Inclination: 81.2445 deg

SMA: 7232.239 km

Apoapsis: 890.846 km

Periapsis: 817.362 km

RAAN: 170.9268 deg

Eccentricy: 0.00508028

Argument of periapsis: 119.6772 deg

Mean anomaly: 240.9471 deg

Mean motion: 14.11541308 rev/day

Mean motion (dot): 0.00000246 rev/day2

B* drag term: 0.00012675778 1/REarth

Two-line elements (TLE)

Creation date: Dec. 12, 2025, 10:14 a.m.

Reference frame: TEME

Reference center: EARTH

Epoch: Dec. 12, 2025, 6:41 a.m. UTC

TLE line 0: 0 SL-3 R/B

TLE line 1: 1 07575U 74099B 25346.27849044 .00000246 00000-0 12676-3 0 9998

TLE line 2: 2 07575 81.2445 170.9268 0050803 119.6772 240.9471 14.11541308623615

Live tracking on map

Real-time ground track for satellite SL-3 R/B.

In-orbit conjunctions

A list of the most updated potential collisions computed for object SL-3 R/B.

Target Orbit TCA Probability of collision Miss distance Type
NOAA 16 DEB SSO 2025-05-05 04:47:43 0.0003887285 97.0 (m) DEBRIS
FENGYUN 1C DEB SSO 2025-05-04 23:28:09 0.001024491 69.0 (m) DEBRIS
COSMOS 1275 DEB LEO 2025-01-23 22:35:04 0.0001334895 667.0 (m) DEBRIS
FENGYUN 1C DEB SSO 2024-10-04 17:54:13 0.0003128162 684.0 (m) DEBRIS
THOR ABLESTAR DEB LEO 2024-08-12 14:52:55 0.0002082002 392.0 (m) DEBRIS

Associated space launch

The Meteor-1 series was the first series of Soviet meteorological satellites.

SL-3 R/B was lifted into orbit during the mission ‘Vostok 8A92M | Meteor-1 20 (32L)’, on board a Vostok 8A92M space rocket.

The launch took place on Dec. 17, 1974, 11:45 a.m. from 43/4 (43R).

For more information about the launch, click the button.

Launch to space Vostok 8A92M | Meteor-1 20 (32L)
Vostok 8A92M | Meteor-1 20 (32L)

Agency: N/A

Status: Launch Successful

Launch date: Dec. 17, 1974, 11:45 a.m. UTC

Rocket: Vostok 8A92M

Launch pad: 43/4 (43R)

Location: Plesetsk Cosmodrome, Russian Federation

...

Latest news about this satellite

There are no fresh news available about this satellite. Check back as we update our databases every day.


Newsletter sign-up

Weekly statistics, charts and insights to help you stay on top of the space industry.